Regional Weather Roundup
Issued by NWS Newport/Morehead, NC

Current Version | Previous Version | Text Only | Print | Product List | Glossary On
Versions: 1 2 3 4 5 6 7 8 9 10 11 12 13 14 15 16 17 18 19 20 21 22 23 24 25 26 27 28 29 30 31 32 33 34 35 36 37 38 39 40 41 42 43 44 45 46 47 48 49 50
000
ASUS42 KMHX 011013
RWRMHX
WEATHER ROUNDUP FOR EASTERN NORTH CAROLINA
NATIONAL WEATHER SERVICE NEWPORT/MOREHEAD CITY NC
600 AM EDT WED JUL 01 2015

NOTE: "FAIR" INDICATES FEW OR NO CLOUDS BELOW 12,000 FEET
WITH NO SIGNIFICANT WEATHER AND/OR OBSTRUCTIONS TO VISIBILITY

NCZ015>017-031-032-045>047-102-103-011100-
NORTH COAST

CITY           SKY/WX    TMP DP  RH WIND       PRES   REMARKS
EDENTON        MOCLDY    76  67  72 SW9       29.91S
ELIZABETH CITY MOCLDY    76  66  71 SW7       29.90S
KITTY HAWK     PTSUNNY   78  72  80 SW9       29.91S
MANTEO         MOCLDY    78  73  87 SW12      29.92S

$$

NCZ045>047-081-094-103-104-011100-
CENTRAL COAST

CITY           SKY/WX    TMP DP  RH WIND       PRES   REMARKS
FRISCO         LGT RAIN  78  73  84 W16G35    29.96R
SWANQUARTER      N/A     79 N/A N/A W8G14     29.88S

$$

NCZ095-097-098-100-101-011100-
SOUTHERN COAST

CITY           SKY/WX    TMP DP  RH WIND       PRES   REMARKS
BEAUFORT       CLEAR     76  71  85 W9        29.94S
CEDAR ISLAND     N/A     70 N/A N/A S5        29.97S
JACKSONVILLE   CLEAR     71  67  87 SW7       29.95R
PINEY ISLAND   MOSUNNY  N/A N/A N/A S6        29.94F
WILMINGTON     CLEAR     73  66  78 SW8       29.96S


$$

NCZ011>013-027>030-043-044-078>080-089-090>093-098-011100-
COASTAL PLAIN

CITY           SKY/WX    TMP DP  RH WIND       PRES   REMARKS
AHOSKIE        PTCLDY    67  66  95 S3        29.90S
CLINTON        CLOUDY    69  69 100 S6        29.95S
ELIZABETHTOWN  CLOUDY    70  69  98 SW3       29.96S
GOLDSBORO      MOCLDY    70  68  94 SW6       29.91F
GREENVILLE     CLEAR     72  68  88 SW7       29.94S
HAVELOCK       CLEAR     74  68  81 SW8       29.95S
KENANSVILLE    CLOUDY    70  67  91 SW8       29.95S
KINSTON        CLEAR     71  68  88 SW12      29.94S
NEW BERN       CLEAR     72  67  84 SW6       29.95R
RICHLANDS      CLEAR     72  63  73 SW6       29.96R
ROCKY MOUNT    PTCLDY    69  67  93 S7        29.92R
WASHINGTON     CLEAR     73  65  78 SW7       29.93S
WHITEVILLE     CLOUDY    71  68  92 CALM      29.97R

$$

AMZ130-135-150-152-154-156-158-170-250-252-270-ANZ085-086-088-633-658-670-011100-
MARINE OBSERVATIONS

STATION/POSITION TIME  TEMP    WIND        PRES    WAVE   SWELL
                       AIR SEA DIR/SP/G            HT/PER HT/PER
                 (UTC) (F)     (DEG/KT/KT) (MB)    (FT/S) (FT/S)
CHESAPEAKE LIGHT 0900   76     220/ 18/ 21 1012.3
64 E VA BEACH    0950   78 76  220/ 14/ 17 1012.2    4/ 7   3/ 7
DUCK             0900   78 62  230/ 16/ 19 1011.9
2 E DUCK         0911      66                N/A     2/ 8
OREGON INLET     0900   80 82  230/ 15/ 18 1013.1
13E OREGON INLT  1000      72                N/A     5/ 6
HATTERAS CG      0900   79 82  210/ 11/ 17 1013.6
DIAMOND BUOY     0950   82 82  220/ 19/ 23 1013.6    6/ 5   2/ 8
CAPE LOOKOUT     1000   78     260/ 15/ 17 1013.8
BEAUFORT LAB     0900   78 81  260/  6/ 11 1013.0
30 SE NEW RVR IN 0908   80 81  260/ 19/ 23 1014.7
27 SE WRIGHTSVLE 0900      80  270/ 16/ 19   N/A
5 SE WRIGHTSVLE  NOT AVBL
225 S CAPE HAT   0950   82 80  230/ 17/ 19 1017.9    6/ 7   3/13
41 SE CHARLESTON 0950   80 82  240/ 16/ 17 1015.3    4/ 5   2/ 8

$$



USA.gov is the U.S. government's official web portal to all federal, state and local government web resources and services.